Regional Weather Roundup
Issued by NWS

Home | Current Version | Previous Version | Text Only | Print | Product List | Glossary Off
Versions: 1 2 3 4 5 6 7 8 9 10 11 12 13 14 15 16 17 18 19 20 21 22 23 24 25 26 27 28 29 30 31 32 33 34 35 36 37 38 39 40 41 42 43 44 45 46 47 48 49 50

796
ASUS45 KABQ 241810
RWRNM
NEW MEXICO REGIONAL WEATHER ROUNDUP
NATIONAL WEATHER SERVICE ALBUQUERQUE NM
1200 PM MDT TUE APR 24 2018

NOTE: "FAIR" MEANS FEW OR NO CLOUDS BELOW 12,000 FEET AGL WITH NO
       SIGNIFICANT WEATHER OR OBSTRUCTIONS TO VISION.

      THIS PRODUCT IS RELEASED AS TWO VERSIONS.  ONE VERSION NEAR
      THE TOP OF THE HOUR CONTAINING PRELIMINARY DATA FROM ALBUQUERQUE
      AND OTHER STATIONS.  A FINAL VERSION WITH ADDITIONAL DATA IS
      ISSUED ABOUT 10 MINUTES AFTER THE HOUR.

NMZ501-503-504-510>518-241900-
NORTHWEST PLATEAU/NORTHCENTRAL MOUNTAINS

CITY           SKY/WX    TMP DP  RH WIND       PRES   REMARKS
FARMINGTON     FAIR      71  24  17 W8        30.13F
6HR MIN TEMP:  39; 6HR MAX TEMP:  71;

LOS ALAMOS     FAIR      66  16  14 NE3       30.23F
SANTA FE       FAIR      70  16  12 VRB3      30.18F
6HR MIN TEMP:  36; 6HR MAX TEMP:  70;

TAOS           FAIR      68  21  16 W7        30.22F
ANGEL FIRE     FAIR      63  20  19 W13G20    30.25F

$$
NMZ402-403-502-505>509-241900-
WESTCENTRAL MOUNTAINS/SOUTHWEST MOUNTAINS

CITY           SKY/WX    TMP DP  RH WIND       PRES   REMARKS
GALLUP         FAIR      71  16  12 S8        30.21S
6HR MIN TEMP:  33; 6HR MAX TEMP:  72;

GRANTS         FAIR      71  15  12 NE3       30.21F
SILVER CITY    FAIR      78  17  10 SW8G18    30.17F

$$
NMZ407-409-411-412-241900-
SOUTHERN DESERTS

CITY           SKY/WX    TMP DP  RH WIND       PRES   REMARKS
DEMING         FAIR      83  23  11 CALM      30.10F
6HR MIN TEMP:  49; 6HR MAX TEMP:  84;

LAS CRUCES     FAIR      84  21   9 E3        30.12F
ALAMOGORDO     FAIR      82  23  11 N3        30.11F
T OR C         FAIR      82  17   9 S14       30.12
6HR MIN TEMP:  57; 6HR MAX TEMP:  83;


$$
NMZ519>523-241900-
CENTRAL VALLEYS/CENTRAL HIGHLANDS

CITY           SKY/WX    TMP DP  RH WIND       PRES   REMARKS
ALBUQUERQUE    PTSUNNY   73  19  13 CALM      30.15F
6HR MIN TEMP:  51; 6HR MAX TEMP:  74;

DOUBLE EAGLE   PTSUNNY   73  18  12 VRB3      30.17F
MORIARTY ARPT  FAIR      78  20  11 S3        30.18F
6HR MIN TEMP:  34; 6HR MAX TEMP:  78;

CLINES CORNERS FAIR      67  30  25 E15G22    30.25S
6HR MIN TEMP:  44; 6HR MAX TEMP:  70;

BELEN          FAIR      76  16  10 CALM      30.15F
6HR MIN TEMP:  49; 6HR MAX TEMP:  76;

SOCORRO        FAIR      79  19  10 SE7       30.13F
6HR MIN TEMP:  48; 6HR MAX TEMP:  80;


$$
NMZ524>526-539-540-241900-
SOUTHCENTRAL MOUNTAINS

CITY           SKY/WX    TMP DP  RH WIND       PRES   REMARKS
RUIDOSO        FAIR      73  14  10 NE7       30.26F

$$
NMZ527>531-241900-
NORTHEAST HIGHLANDS/NORTHEAST PLAINS

CITY           SKY/WX    TMP DP  RH WIND       PRES   REMARKS
LAS VEGAS      FAIR      62  35  36 E12G20    30.24S
6HR MIN TEMP:  38; 6HR MAX TEMP:  62;

RATON          FAIR      55  35  47 N17G24    30.24F
6HR MIN TEMP:  41; 6HR MAX TEMP:  55;

CLAYTON        PTSUNNY   50  38  63 N28G33    30.26F
6HR MIN TEMP:  44; 6HR MAX TEMP:  51;


$$
NMZ532>537-241900-
EASTCENTRAL PLAINS

CITY           SKY/WX    TMP DP  RH WIND       PRES   REMARKS
SANTA ROSA     FAIR      66  37  33 NE15G25   30.18F
TUCUMCARI      FAIR      66  41  40 NE24G33   30.18S
6HR MIN TEMP:  47; 6HR MAX TEMP:  66;

CANNON AFB     NOT AVBL
CLOVIS AIRPORT FAIR      66  42  41 NE26G32   30.16S

$$
NMZ028-029-538-241900-
SOUTHEAST PLAINS

CITY           SKY/WX    TMP DP  RH WIND       PRES   REMARKS
ROSWELL        FAIR      83  36  18 NE16      30.05S
6HR MIN TEMP:  52; 6HR MAX TEMP:  85;

ARTESIA        FAIR      84  36  17 E5        30.04F
CARLSBAD       FAIR      90  34  13 CALM      30.01F
6HR MIN TEMP:  50; 6HR MAX TEMP:  90;

HOBBS          SUNNY     90  30  12 S12G17    30.04F


$$




USA.gov is the U.S. government's official web portal to all federal, state and local government web resources and services.